Location: Bruch
(44.2051°N, 0.4120°E)
Time: 18:32:23
(UTC+00:00)

ATLAS 2AS CENTAUR R/B - Visible Passes

Search period start: 16 April 2021 00:00
Search period end: 26 April 2021 00:00
Orbit: 949 x 1263 km, 63.7° (Epoch: 16 April)

Date Brightness Start Highest point End Pass type
(mag) Time Alt. Az. Time Alt. Az. Time Alt. Az.
16 Apr 5.4 00:11:37 10° NW 00:16:28 17° N 00:21:10 10° NE visible
16 Apr 5.0 02:04:42 10° NNW 02:10:30 23° NNE 02:15:59 10° ENE visible
16 Apr 3.4 03:55:41 10° NNW 04:03:02 62° NE 04:09:48 10° SE visible
16 Apr 3.0 19:38:09 10° SSW 19:45:55 65° ESE 19:53:39 10° NE visible
16 Apr 4.3 21:30:05 10° WSW 21:37:25 39° NW 21:44:34 10° NNE visible
16 Apr 5.3 23:25:29 10° NW 23:30:43 19° NNW 23:35:48 10° NNE visible
17 Apr 5.3 01:19:36 10° NNW 01:24:51 19° NNE 01:29:52 10° ENE visible
17 Apr 4.0 03:10:50 10° NNW 03:17:56 44° NE 03:24:30 10° ESE visible
17 Apr 3.8 20:44:30 10° WSW 20:52:12 53° NW 20:59:46 10° NNE visible
17 Apr 5.2 22:39:14 10° WNW 22:45:02 22° NNW 22:50:41 10° NNE visible
18 Apr 5.4 00:34:16 10° NNW 00:39:08 17° N 00:43:49 10° NE visible
18 Apr 4.5 02:26:00 10° NNW 02:32:40 33° NE 02:38:52 10° E visible
18 Apr 2.7 04:16:59 10° NW 04:24:18 74° WSW 04:31:01 10° SSE visible
18 Apr 3.3 19:59:14 10° SW 20:07:09 73° NW 20:14:57 10° NE visible
18 Apr 5.0 21:53:02 10° W 21:59:28 26° NNW 22:05:45 10° NNE visible
18 Apr 5.4 23:48:36 10° NW 23:53:21 17° N 23:57:58 10° NE visible
19 Apr 4.8 01:41:07 10° NNW 01:47:14 26° NNE 01:53:00 10° E visible
19 Apr 3.0 03:32:03 10° NW 03:39:27 77° NE 03:46:15 10° SE visible
19 Apr 3.1 19:14:20 10° SSW 19:22:14 81° ESE 19:30:04 10° NE visible
19 Apr 4.6 21:07:00 10° W 21:14:01 34° NW 21:20:54 10° NNE visible
19 Apr 5.4 23:02:37 10° NW 23:07:35 18° N 23:12:24 10° NNE visible
20 Apr 5.1 00:56:07 10° NNW 01:01:40 21° NNE 01:06:57 10° ENE visible
20 Apr 3.5 02:47:11 10° NNW 02:54:27 54° NE 03:01:08 10° ESE visible
20 Apr 4.2 20:21:14 10° WSW 20:28:44 44° NW 20:36:06 10° NNE visible
20 Apr 5.3 22:16:24 10° WNW 22:21:51 20° NNW 22:27:10 10° NNE visible
21 Apr 5.3 00:10:57 10° NNW 00:15:59 18° NNE 00:20:51 10° NE visible
21 Apr 4.1 02:02:21 10° NNW 02:09:17 39° NE 02:15:42 10° ESE visible
21 Apr 2.8 03:53:26 10° NW 04:00:33 58° WSW 04:07:07 10° SSE visible
21 Apr 3.7 19:35:47 10° SW 19:43:36 61° NW 19:51:17 10° NNE visible
21 Apr 5.2 21:30:09 10° WNW 21:36:13 23° NNW 21:42:08 10° NNE visible
21 Apr 5.4 23:25:28 10° NW 23:30:15 17° N 23:34:52 10° NE visible
22 Apr 4.6 01:17:30 10° NNW 01:23:56 30° NNE 01:29:59 10° E visible
22 Apr 2.7 03:08:26 10° NW 03:15:49 86° SW 03:22:35 10° SSE visible
22 Apr 4.9 20:44:00 10° W 20:50:42 29° NNW 20:57:14 10° NNE visible
22 Apr 5.4 22:39:40 10° NW 22:44:28 17° N 22:49:08 10° NE visible
23 Apr 4.9 00:32:34 10° NNW 00:38:27 24° NNE 00:44:01 10° ENE visible
23 Apr 3.1 02:23:32 10° NNW 02:30:55 66° NE 02:37:40 10° SE visible
23 Apr 3.5 04:15:21 10° NW 04:21:15 28° WSW 04:26:47 10° SSW visible
23 Apr 4.6 19:58:05 10° WSW 20:05:20 38° NW 20:12:25 10° NNE visible
23 Apr 5.4 21:53:34 10° NW 21:58:42 18° NNW 22:03:42 10° NNE visible
23 Apr 5.2 23:47:30 10° NNW 23:52:50 20° NNE 23:57:56 10° ENE visible
24 Apr 3.7 01:38:41 10° NNW 01:45:50 47° NE 01:52:25 10° ESE visible
24 Apr 3.0 03:29:58 10° NW 03:36:46 45° WSW 03:43:04 10° S visible
24 Apr 4.1 19:12:27 10° WSW 19:20:05 50° NW 19:27:36 10° NNE visible
24 Apr 5.3 21:07:19 10° WNW 21:13:00 21° NNW 21:18:33 10° NNE visible
24 Apr 5.3 23:02:14 10° NNW 23:07:07 18° N 23:11:51 10° NE visible
25 Apr 4.2 00:53:50 10° NNW 01:00:35 35° NE 01:06:51 10° E visible
25 Apr 2.6 02:44:51 10° NW 02:52:07 69° WSW 02:58:47 10° SSE visible
25 Apr 5.1 20:21:05 10° W 20:27:25 25° NNW 20:33:35 10° NNE visible
25 Apr 5.4 22:16:37 10° NW 22:21:21 17° N 22:25:57 10° NE visible
